Location: Brantley
(31.5822°N, 86.2569°W)
Time: 07:16:12
(UTC+00:00)

Transit 2A Rocket - Pass Details

Date: 18 February 2026
Orbit: 583 x 900 km, 66.7° (Epoch: 11 March)

Event Time Altitude Azimuth Distance (km) Brightness Sun altitude
Rises 21:56:00 0° 231° (SW) 3,447 9.9 18.9°
Reaches altitude 10° 21:58:43 10° 241° (WSW) 2,539 10.3 18.4°
Maximum altitude 22:03:57 32° 303° (WNW) 1,504 7.1 17.4°
Drops below altitude 10° 22:09:16 10° 5° (N) 2,570 7.5 16.3°
Sets 22:12:04 0° 15° (NNE) 3,496 8.0 15.8°
